Location: Nashville
(36.1660°N, 86.7840°W)
Time: 21:19:23
(UTC-05:00)

SO-50 - Pass Details

Date: 24 May 2022
Orbit: 586 x 697 km, 64.6° (Epoch: 29 June)

Event Time Altitude Azimuth Distance (km) Brightness Sun altitude
Rises 21:34:51 0° 304° (NW) 3,077 ? -17.5°
Reaches altitude 10° 21:39:03 10° 270° (W) 2,147 ? -18.1°
Maximum altitude 21:40:23 11° 254° (WSW) 2,071 ? -18.3°
Drops below altitude 10° 21:41:42 10° 238° (WSW) 2,134 ? -18.5°
Enters shadow 21:45:21 - 206° (SSW) 2,881 ? -19.0°
